• Join FlightAware (Why Join?)
  • Login
  • US Flag GB Flag 
11:22 EDT


 

Airport Tracker/Info


-or-


 

Live Flight TrackerFlight Track Log ✈ EJA922 ✈ 10-Oct-2013 ✈ KRNO - KMSP

Flight Track Log - Related Links

Times and Time Zones

All times are in EDT time to prevent confusion due to time zone crossing. See the EJA922 flight status page for this flight to view local times or setup timezone preferences in your user account.

Time Position Orientation Groundspeed Altitude Reporting Facility
EDT Latitude Longitude Course Direction KTS MPH feet Rate Location/Type
13:51 39.5667 -119.7833 30° Northeast 228 262 7,600  Level Northern Cal TRACON
13:52 39.6333 -119.7333 30° Northeast 298 343 10,200 2,340 Climbing Northern Cal TRACON
13:53 39.6594 -119.6833 56° Northeast 316 364 11,400 2,220 Climbing Oakland Center
13:54 39.7244 -119.5872 49° Northeast 340 391 13,900 2,340 Climbing Oakland Center
13:55 39.7919 -119.4856 49° Northeast 360 414 16,300 2,520 Climbing Oakland Center
13:56 39.8600 -119.3797 50° Northeast 374 430 19,100 2,340 Climbing Oakland Center
13:57 39.9258 -119.2756 50° Northeast 372 428 21,200 1,800 Climbing Oakland Center
13:58 39.9944 -119.1647 51° Northeast 384 442 22,800 1,440 Climbing Oakland Center
13:59 40.0644 -119.0503 51° Northeast 398 458 24,200 1,560 Climbing Oakland Center
14:00 40.1514 -118.9053 52° Northeast 418 481 26,100 1,560 Climbing Oakland Center
14:01 40.2261 -118.7817 52° Northeast 429 494 27,400 1,260 Climbing Oakland Center
14:02 40.2811 -118.6322 64° Northeast 461 531 28,700 1,200 Climbing Oakland Center
14:03 40.3289 -118.4728 68° East 468 539 30,000 1,500 Climbing Salt Lake Center
14:04 40.3767 -118.3097 69° East 475 547 31,800 1,440 Climbing Oakland Center
14:05 40.4247 -118.1478 69° East 476 548 33,000 900 Climbing Oakland Center
14:06 40.4756 -117.9725 69° East 495 570 33,800 1,200 Climbing Salt Lake Center
14:07 40.5319 -117.7814 69° East 503 579 35,500 1,500 Climbing Oakland Center
14:08 40.5786 -117.6175 69° East 501 577 36,900 1,440 Climbing Oakland Center
14:09 40.6333 -117.4242 69° East 498 573 38,600 1,440 Climbing Salt Lake Center
14:10 40.6794 -117.2625 69° East 493 567 40,000 1,140 Climbing Salt Lake Center
14:11 40.7328 -117.0756 69° East 485 558 41,000 480 Climbing Salt Lake Center
14:12 40.7792 -116.9086 70° East 497 572 41,000  Level Salt Lake Center
14:13 40.8269 -116.7358 70° East 516 594 41,000  Level Salt Lake Center
14:14 40.8833 -116.5325 70° East 524 603 41,000  Level Salt Lake Center
14:15 40.9303 -116.3603 70° East 521 600 41,000  Level Salt Lake Center
14:17 40.9844 -116.1550 71° East 526 605 41,000  Level Salt Lake Center
14:18 41.0336 -115.9817 69° East 525 604 41,000  Level Salt Lake Center
14:19 41.0881 -115.7786 70° East 523 602 41,000  Level Salt Lake Center
14:20 41.1336 -115.6044 71° East 522 601 41,000  Level Salt Lake Center
14:21 41.1875 -115.4011 71° East 522 601 41,000  Level Salt Lake Center
14:22 41.2319 -115.2272 71° East 521 600 41,000  Level Salt Lake Center
14:23 41.2769 -115.0561 71° East 515 593 41,000  Level Salt Lake Center
14:24 41.3292 -114.8556 71° East 512 589 41,000  Level Salt Lake Center
14:25 41.3697 -114.6919 72° East 512 589 41,000  Level Salt Lake Center
14:26 41.4256 -114.4767 71° East 512 589 41,000  Level Salt Lake Center
14:27 41.4714 -114.2969 71° East 513 590 41,000  Level Salt Lake Center
14:28 41.5158 -114.1161 72° East 514 592 41,000  Level Salt Lake Center
14:29 41.5608 -113.9356 72° East 513 590 41,000  Level Salt Lake Center
14:30 41.6047 -113.7547 72° East 512 589 41,000  Level Salt Lake Center
14:31 41.6497 -113.5719 72° East 517 595 41,000  Level Salt Lake Center
14:32 41.7033 -113.3519 72° East 519 597 41,000  Level Salt Lake Center
14:33 41.7472 -113.1681 72° East 520 598 41,000  Level Salt Lake Center
14:34 41.7914 -112.9844 72° East 518 596 41,000  Level Salt Lake Center
14:35 41.8356 -112.7992 72° East 520 598 41,000  Level Salt Lake Center
14:36 41.8769 -112.6133 73° East 521 600 41,000  Level Salt Lake Center
14:37 41.9219 -112.4261 72° East 525 604 41,000  Level Salt Lake Center
14:38 41.9722 -112.2061 73° East 516 594 41,000  Level Salt Lake Center
14:39 42.0136 -112.0231 73° East 513 590 41,000  Level Salt Lake Center
14:40 42.0553 -111.8386 73° East 514 592 41,000  Level Salt Lake Center
14:41 42.0978 -111.6536 73° East 515 593 41,000  Level Salt Lake Center
14:42 42.1389 -111.4675 73° East 517 595 41,000  Level Salt Lake Center
14:43 42.1794 -111.2831 73° East 516 594 41,000  Level Salt Lake Center
14:44 42.2192 -111.0986 74° East 514 592 41,000  Level Salt Lake Center
14:45 42.2672 -110.8789 73° East 515 593 41,000  Level Salt Lake Center
14:46 42.3061 -110.7019 73° East 514 592 41,000  Level Salt Lake Center
14:48 42.3494 -110.4936 74° East 516 594 41,000  Level Salt Lake Center
14:49 42.3881 -110.3139 74° East 519 597 41,000  Level Salt Lake Center
14:50 42.4250 -110.1336 74° East 519 597 41,000  Level Salt Lake Center
14:51 42.4689 -109.9219 74° East 522 601 41,000  Level Salt Lake Center
14:52 42.5061 -109.7406 74° East 522 601 41,000  Level Salt Lake Center
14:53 42.5492 -109.5272 75° East 524 603 41,000  Level Salt Lake Center
14:54 42.5867 -109.3453 74° East 523 602 41,000  Level Salt Lake Center
14:55 42.6303 -109.1278 75° East 531 611 41,000  Level Salt Lake Center
14:56 42.6669 -108.9422 75° East 532 612 41,000  Level Salt Lake Center
14:57 42.7092 -108.7239 75° East 533 613 41,000  Level Salt Lake Center
14:58 42.7444 -108.5378 75° East 532 612 41,000  Level Salt Lake Center
14:59 42.7869 -108.3225 75° East 529 609 41,000  Level Salt Lake Center
15:00 42.8217 -108.1333 76° East 534 615 41,000  Level Salt Lake Center
15:01 42.8564 -107.9439 76° East 538 619 41,000  Level Salt Lake Center
15:02 42.8983 -107.7231 75° East 538 619 41,000  Level Salt Lake Center
15:03 42.9333 -107.5317 76° East 542 624 41,000  Level Salt Lake Center
15:04 42.9703 -107.3228 76° East 544 626 41,000  Level Salt Lake Center
15:05 43.0053 -107.1217 77° East 547 629 41,000  Level Salt Lake Center
15:06 43.0467 -106.8992 76° East 544 626 41,000  Level Salt Lake Center
15:07 43.0744 -106.7364 77° East 547 629 41,000  Level Denver Center
15:08 43.1086 -106.5425 76° East 547 629 41,000  Level Denver Center
15:09 43.1478 -106.3164 77° East 547 629 41,000  Level Denver Center
15:10 43.1797 -106.1225 77° East 546 628 41,000  Level Denver Center
15:11 43.2125 -105.9283 77° East 546 628 41,000  Level Denver Center
15:12 43.2506 -105.6992 77° East 550 633 41,000  Level Denver Center
15:13 43.2814 -105.5036 78° East 548 631 41,000  Level Denver Center
15:14 43.3194 -105.2719 77° East 553 636 41,000  Level Denver Center
15:15 43.3519 -105.0744 77° East 553 636 41,000  Level Denver Center
15:16 43.3881 -104.8411 78° East 556 640 41,000  Level Denver Center
15:17 43.4189 -104.6400 78° East 557 641 41,000  Level Denver Center
15:18 43.4556 -104.4036 78° East 562 647 41,000  Level Denver Center
15:19 43.4858 -104.2003 78° East 564 649 41,000  Level Denver Center
15:20 43.5167 -103.9972 78° East 564 649 41,000  Level Denver Center
15:21 43.5517 -103.7581 79° East 569 655 41,000  Level Denver Center
15:22 43.5822 -103.5525 78° East 570 656 41,000  Level Denver Center
15:23 43.6181 -103.3108 78° East 573 659 41,000  Level Denver Center
15:24 43.6461 -103.1003 79° East 579 666 41,000  Level Denver Center
15:25 43.6800 -102.8550 79° East 582 670 41,000  Level Denver Center
15:26 43.7078 -102.6447 80° East 582 670 41,000  Level Denver Center
15:28 43.7408 -102.3978 79° East 584 672 41,000  Level Denver Center
15:29 43.7681 -102.1850 80° East 586 674 41,000  Level Denver Center
15:30 43.7964 -101.9733 79° East 588 677 41,000  Level Denver Center
15:31 43.8256 -101.7508 80° East 590 679 41,000  Level Denver Center
15:32 43.8586 -101.4814 80° East 594 684 41,000  Level Denver Center
15:33 43.8867 -101.2564 80° East 594 684 41,000  Level Denver Center
15:34 43.9133 -101.0311 81° East 594 684 41,000  Level Denver Center
15:35 43.9397 -100.8067 81° East 593 682 41,000  Level Denver Center
15:36 43.9664 -100.5794 81° East 598 688 41,000  Level Denver Center
15:37 44.0028 -100.2647 81° East 597 687 41,000  Level Minneapolis Center
15:38 44.0283 -100.0403 81° East 594 684 41,000  Level Minneapolis Center
15:39 44.0539 -99.8169 81° East 591 680 41,000  Level Minneapolis Center
15:40 44.0775 -99.5917 82° East 592 681 41,000  Level Minneapolis Center
15:41 44.1011 -99.3656 82° East 594 684 41,000  Level Minneapolis Center
15:42 44.1297 -99.0942 82° East 594 684 41,000  Level Minneapolis Center
15:43 44.1531 -98.8672 82° East 595 685 41,000  Level Minneapolis Center
15:44 44.1764 -98.6456 82° East 594 684 41,000  Level Minneapolis Center
15:45 44.1978 -98.4181 82° East 595 685 41,000  Level Minneapolis Center
15:46 44.2194 -98.1894 82° East 596 686 41,000  Level Minneapolis Center
15:47 44.2447 -97.9156 83° East 595 685 41,000  Level Minneapolis Center
15:48 44.2656 -97.6853 83° East 597 687 41,000  Level Minneapolis Center
15:49 44.2858 -97.4564 83° East 597 687 41,000  Level Minneapolis Center
15:50 44.3053 -97.2275 83° East 595 685 41,000  Level Minneapolis Center
15:52 44.3242 -96.9986 83° East 594 684 41,000  Level Minneapolis Center
15:53 44.3436 -96.7689 83° East 595 685 41,000 -60 Level Minneapolis Center
15:54 44.3633 -96.5397 83° East 593 682 40,900 -780 Descending Minneapolis Center
15:55 44.3808 -96.3094 84° East 590 679 39,500 -1,500 Descending Minneapolis Center
15:56 44.4003 -96.0817 83° East 581 669 37,800 -2,400 Descending Minneapolis Center
15:57 44.4197 -95.8122 84° East 576 663 34,600 -3,000 Descending Minneapolis Center
15:58 44.4350 -95.6028 84° East 549 632 31,600 -2,760 Descending Minneapolis Center
15:59 44.4486 -95.4122 84° East 502 578 28,900 -2,520 Descending Minneapolis Center
16:00 44.4600 -95.2314 85° East 471 542 26,400 -2,340 Descending Minneapolis Center
16:01 44.4819 -95.0592 80° East 453 521 24,100 -2,280 Descending Minneapolis Center
16:02 44.5228 -94.9022 70° East 436 502 21,800 -2,400 Descending Minneapolis Center
16:03 44.5656 -94.7203 72° East 417 480 19,200 -2,280 Descending Minneapolis Center
16:04 44.5950 -94.5908 72° East 400 460 17,200 -1,980 Descending Minneapolis Center
16:05 44.6267 -94.4478 73° East 387 445 15,200 -2,220 Descending Minneapolis Center
16:06 44.6658 -94.2783 72° East 382 440 12,700 -2,100 Descending Minneapolis Center
16:07 44.7003 -94.1253 72° East 412 474 10,900 -1,020 Descending Minneapolis Center
16:08 44.7508 -93.9892 62° Northeast 372 428 10,700 -480 Descending Minneapolis Center
16:09 44.8031 -93.8864 54° Northeast 322 371 10,000 -780 Descending Minneapolis Center
16:10 44.8486 -93.7978 54° Northeast 281 323 9,100 -1,140 Descending Minneapolis Center
16:11 44.8911 -93.7119 55° Northeast 267 307 7,700 -1,500 Descending Minneapolis Center
16:12 44.9408 -93.6106 55° Northeast 260 299 6,000 -1,260 Descending Minneapolis Center
16:13 44.9547 -93.5261 77° East 223 257 5,100 -780 Descending Minneapolis Center
16:14 44.9500 -93.4500 95° East 195 224 4,400 -960 Descending Minneapolis Center
16:15 44.9461 -93.3811 95° East 179 206 3,200 -1,020 Descending Minneapolis Center
16:16 44.9278 -93.3239 114° Southeast 161 185 2,300 -780 Descending Minneapolis Center
16:17 44.9053 -93.2742 123° Southeast 152 175 1,600 -720 Descending Minneapolis Center
16:19 44.8820 -93.2218 90° East  Level Estimated
16:26 44.8820 -93.2218 90° East  Level Estimated
16:27 44.8820 -93.2218 90° East  Level Estimated